Regional Weather Roundup
Issued by NWS

Home | Current Version | Previous Version | Text Only | Print | Product List | Glossary Off
Versions: 1 2 3 4 5 6 7 8 9 10 11 12 13 14 15 16 17 18 19 20 21 22 23 24 25 26 27 28 29 30 31 32 33 34 35 36 37 38 39 40 41 42 43 44 45 46 47 48 49 50

000
ASUS43 KIND 280809
RWRIN

WEATHER ROUNDUP FOR INDIANA
NATIONAL WEATHER SERVICE INDIANAPOLIS IN
400 AM EDT FRI AUG 28 2015

NOTE: "FAIR" INDICATES FEW OR NO CLOUDS BELOW 12,000 FEET WITH NO
SIGNIFICANT WEATHER AND/OR OBSTRUCTIONS TO VISIBILITY.

* - STATION DOES NOT REPORT WEATHER SUCH AS PRECIPITATION OR FOG.

+ - STATION NOT QUALITY CONTROLLED BY THE NATIONAL WEATHER SERVICE.
    USE DATA WITH CAUTION...ESPECIALLY DEWPOINT AND RELATIVE
    HUMIDITY OBSERVATIONS.

INZ001>003-010>013-019-020-280900-
NORTHWEST INDIANA

CITY           SKY/WX    TMP DP  RH WIND       PRES   REMARKS
GARY /AIRPORT/ CLEAR     60  55  84 SE5       30.14R
KNOX *+          N/A     50  50 100 CALM      30.14S
LA PORTE +     PTCLDY   N/A N/A N/A CALM      30.16S
MICHIGAN CITY+ CLEAR     55  55 100 CALM      30.15S
MONTICELLO +   CLEAR     60  58  91 SE3       30.13S
RENSSELAER +   CLEAR     55  55 100 NE3       30.14S
VALPARAISO     CLEAR     55  53  93 NE6       30.15S

$$

LMZ046-743>745-280900-
SOUTHERN LAKE MICHIGAN

STATION/POSITION TIME  TEMP    WIND        PRES    WAVE
                       AIR SEA DIR/SP/G            HT
                 (UTC) (F)     (DEG/KT/KT) (MB)    (FT)
BURNS HARBOR     0700   64     160/  7/ 11 1021.0S
MICHIGAN CITY    0700   60     120/  8/  8   N/A
5NW MICH CITY    0800   64 70  160/ 12/ 16   N/A     1

$$

INZ004-005-014>016-021>024-280900-
NORTH CENTRAL INDIANA

CITY           SKY/WX    TMP DP  RH WIND       PRES   REMARKS
GOSHEN         CLEAR     57  54  89 SE7       30.15F
LOGANSPORT +   CLEAR     55  52  88 E5        30.16R
PERU/GRISSOM   CLEAR     58  55  89 E5        30.14S
ROCHESTER +    PTCLDY    59  57  94 E5        30.15S
SOUTH BEND     CLEAR     55  53  93 E5        30.16S
WARSAW +       CLEAR     54  54 100 CALM      30.15F

$$

INZ006>009-017-018-025>027-280900-
NORTHEAST INDIANA

CITY           SKY/WX    TMP DP  RH WIND       PRES   REMARKS
ANGOLA *+      CLEAR     55  54  94 SE3       30.17S
AUBURN +       CLEAR     54  52  94 CALM      30.18R FOG
FORT WAYNE     PTCLDY    56  54  93 E3        30.17S
HUNTINGTON +   CLEAR     54  51  89 CALM      30.16R

$$

INZ028-029-035-036-043>045-051>053-280900-
WEST CENTRAL INDIANA

CITY           SKY/WX    TMP DP  RH WIND       PRES   REMARKS
CRAWFORDSVL +  CLOUDY    55  55 100 CALM      30.14R
GREENCASTLE +  CLEAR     57  54  88 CALM      30.14S
LAFAYETTE      PTCLDY    59  56  89 E5        30.13R
TERRE HAUTE    CLOUDY    59  57  93 CALM      30.13R

$$

INZ030>032-037>040-046>048-054>057-064-065-280900-
CENTRAL INDIANA

CITY           SKY/WX    TMP DP  RH WIND       PRES   REMARKS
FRANKFORT +    MOCLDY   N/A N/A N/A CALM      30.16S
GREENWOOD *+   CLEAR     57  54  88 CALM      30.15S
INDIANAPOLIS   CLEAR     63  56  78 E3        30.12S
-EAGLE CREEK   CLEAR     59  57  93 CALM      30.14R
KOKOMO *+      CLEAR     55  52  88 SE3       30.15F
MARION +       CLOUDY    55  50  83 CALM      30.16S
MT COMFORT *+  CLEAR     54 N/A N/A CALM      30.16R
SHELBYVILLE    CLEAR     56  52  86 E3        30.14S
ZIONSVILLE +   FOG       55  52  90 E3        30.15S VSB 3/4

$$

INZ033-034-041-042-049-050-058-059-280900-
EAST CENTRAL INDIANA

CITY           SKY/WX    TMP DP  RH WIND       PRES   REMARKS
MUNCIE         PTCLDY    54  54 100 CALM      30.16S

$$

INZ060-061-067>069-081>083-085>088-280900-
SOUTHWEST INDIANA

CITY           SKY/WX    TMP DP  RH WIND       PRES   REMARKS
EVANSVILLE     CLEAR     60  57  89 CALM      30.12R
HUNTINGBURG *+ CLEAR     57  54  88 CALM      30.12S
WASHINGTON +   CLEAR     56  52  88 CALM      30.12S

$$

INZ062-063-066-070>080-084-089>092-280900-
SOUTH CENTRAL AND SOUTHEAST INDIANA

CITY           SKY/WX    TMP DP  RH WIND       PRES   REMARKS
BLOOMINGTON    CLEAR     55  54  96 CALM      30.14S
MADISON *+     CLEAR     55  54  94 CALM      30.16R
NORTH VERNON + CLEAR     57  57 100 CALM      30.15R
SEYMOUR +      FOG       54  52  94 CALM      30.14R VSB 1

$$



USA.gov is the U.S. government's official web portal to all federal, state and local government web resources and services.